Location: Alvediston
(51.0078°N, 2.0364°W)
Time: 04:07:58
(UTC+00:00)

STARLINK-81 - Pass Details

Date: 27 February 2020
Orbit: 529 x 530 km, 53.0° (Epoch: 09 April)

Event Time Altitude Azimuth Distance (km) Brightness Sun altitude
Rises 20:24:11 0° 286° (WNW) 2,671 8.5 -25.5°
Reaches altitude 10° 20:26:24 10° 287° (WNW) 1,780 7.2 -25.9°
Enters shadow 20:29:22 48° 292° (WNW) 703 4.4 -26.3°
